SL-14 R/B (20466 NORAD) Tracking and Keplerian Element Data

This shows tracking and keplerian element data for the satellite.

Feedback or suggestion? Click here.




ElementValue
Catalog20466
NameSL-14 R/B
Epoch Orbit91667
Epoch Day354.03016013
Epoch Year2025
RAAN342.1996
Inclination82.5019
Eccentricity0.0019247
Argument of Perigee198.0337
Mean Anonmoly162.0198
Mean Motion14.83477512
Decay Rate3.27E-06
L11 20466U 90010B 25354.03016013 .00000327 00000+0 36828-4 0 9993
L22 20466 82.5019 342.1996 0019247 198.0337 162.0198 14.83477512916671



Live tracking and technical data element details for SL-14 R/B (NORAD 20466). SL-14 R/B can be tracked NOW for your location showing map with azimuth and elevation plus other details from your city location.







IsCatalogInMostPopularTable: catalog: 20466, numindb: 429
Update: records affected: 1



GetName: 20466 SL-14 R/B

Hit Count: updated at: Fri, 16 Jan 2026 03:44:15 GMT